Year,Month,Day,Hour,Minute,Value (Times are PST for temperature in C)
2019,01,19,02,22,9.50
2019,01,19,02,23,9.50
2019,01,19,02,24,9.40
2019,01,19,02,25,9.40
2019,01,19,02,26,9.40
2019,01,19,02,27,9.40
2019,01,19,02,28,9.50
2019,01,19,02,29,9.50
2019,01,19,02,30,9.50
2019,01,19,02,31,9.50
2019,01,19,02,32,9.50
2019,01,19,02,33,9.50
2019,01,19,02,34,9.40
2019,01,19,02,35,9.30
2019,01,19,02,36,9.30
2019,01,19,02,37,9.20
2019,01,19,02,38,9.10
2019,01,19,02,39,9.10
2019,01,19,02,40,9.10
2019,01,19,02,41,9.00
2019,01,19,02,42,9.00
2019,01,19,02,43,8.90
2019,01,19,02,44,8.90
2019,01,19,02,45,9.00
2019,01,19,02,46,9.00
2019,01,19,02,47,9.00
2019,01,19,02,48,9.00
2019,01,19,02,49,9.00
2019,01,19,02,50,9.00
2019,01,19,02,51,9.00
2019,01,19,02,52,9.00
2019,01,19,02,53,9.00
2019,01,19,02,54,9.00
2019,01,19,02,55,9.10
2019,01,19,02,56,9.10
2019,01,19,02,57,9.10
2019,01,19,02,58,9.10
2019,01,19,02,59,9.10
2019,01,19,03,00,9.10
2019,01,19,03,01,9.00
2019,01,19,03,02,9.00
2019,01,19,03,03,9.00
2019,01,19,03,04,8.90
2019,01,19,03,05,8.90
2019,01,19,03,06,8.90
2019,01,19,03,07,8.90
2019,01,19,03,08,8.90
2019,01,19,03,09,8.90
2019,01,19,03,10,8.90
2019,01,19,03,11,8.90
2019,01,19,03,12,8.90
2019,01,19,03,13,8.90
2019,01,19,03,14,8.90
2019,01,19,03,15,8.90
2019,01,19,03,16,8.80
2019,01,19,03,17,8.80
2019,01,19,03,18,8.80
2019,01,19,03,19,8.70
2019,01,19,03,20,8.60
2019,01,19,03,21,8.60
2019,01,19,03,22,8.50
2019,01,19,03,23,8.50
2019,01,19,03,24,8.40
2019,01,19,03,25,8.40
2019,01,19,03,26,8.40
2019,01,19,03,27,8.30
2019,01,19,03,28,8.30
2019,01,19,03,29,8.20
2019,01,19,03,30,8.20
2019,01,19,03,31,8.20
2019,01,19,03,32,8.10
2019,01,19,03,33,8.10
2019,01,19,03,34,8.10
2019,01,19,03,35,8.10
2019,01,19,03,36,8.00
2019,01,19,03,37,8.00
2019,01,19,03,38,8.00
2019,01,19,03,39,7.90
2019,01,19,03,40,8.00
2019,01,19,03,41,8.00
2019,01,19,03,42,8.10
2019,01,19,03,43,8.10
2019,01,19,03,44,8.10
2019,01,19,03,45,8.20
2019,01,19,03,46,8.20
2019,01,19,03,47,8.30
2019,01,19,03,48,8.40
2019,01,19,03,49,8.50
2019,01,19,03,50,8.60
2019,01,19,03,51,8.70
2019,01,19,03,52,8.80
2019,01,19,03,53,8.80
2019,01,19,03,54,8.90
2019,01,19,03,55,9.00
2019,01,19,03,56,9.00
2019,01,19,03,57,9.10
2019,01,19,03,58,9.10
2019,01,19,03,59,9.10
2019,01,19,04,00,9.00
2019,01,19,04,01,9.00
2019,01,19,04,02,8.90
2019,01,19,04,03,8.90
2019,01,19,04,04,8.90
2019,01,19,04,05,8.80
2019,01,19,04,06,8.80
2019,01,19,04,07,8.70
2019,01,19,04,08,8.70
2019,01,19,04,09,8.70
2019,01,19,04,10,8.60
2019,01,19,04,11,8.60
2019,01,19,04,12,8.50
2019,01,19,04,13,8.50
2019,01,19,04,14,8.40
2019,01,19,04,15,8.40
2019,01,19,04,16,8.30
2019,01,19,04,17,8.30
2019,01,19,04,18,8.30
2019,01,19,04,19,8.30
2019,01,19,04,20,8.20
2019,01,19,04,21,8.20
2019,01,19,04,22,8.20
2019,01,19,04,23,8.20
2019,01,19,04,24,8.20
2019,01,19,04,25,8.20
2019,01,19,04,26,8.20
2019,01,19,04,27,8.20
2019,01,19,04,28,8.20
2019,01,19,04,29,8.20
2019,01,19,04,30,8.20
2019,01,19,04,31,8.30
2019,01,19,04,32,8.30
2019,01,19,04,33,8.40
2019,01,19,04,34,8.50
2019,01,19,04,35,8.60
2019,01,19,04,36,8.60
2019,01,19,04,37,8.70
2019,01,19,04,38,8.70
2019,01,19,04,39,8.70
2019,01,19,04,40,8.70
2019,01,19,04,41,8.80
2019,01,19,04,42,8.80
2019,01,19,04,43,8.80
2019,01,19,04,44,8.80
2019,01,19,04,45,8.80
2019,01,19,04,46,8.80
2019,01,19,04,47,8.80
2019,01,19,04,48,8.80
2019,01,19,04,49,8.80
2019,01,19,04,50,8.80
2019,01,19,04,51,8.80
2019,01,19,04,52,8.80
2019,01,19,04,53,8.80
2019,01,19,04,54,8.80
2019,01,19,04,55,8.80
2019,01,19,04,56,8.80
2019,01,19,04,57,8.70
2019,01,19,04,58,8.70
2019,01,19,04,59,8.70
2019,01,19,05,00,8.70
2019,01,19,05,01,8.60
2019,01,19,05,02,8.60
2019,01,19,05,03,8.60
2019,01,19,05,04,8.60
2019,01,19,05,05,8.60
2019,01,19,05,06,8.60
2019,01,19,05,07,8.60
2019,01,19,05,08,8.60
2019,01,19,05,09,8.60
2019,01,19,05,10,8.60
2019,01,19,05,11,8.70
2019,01,19,05,12,8.70
2019,01,19,05,13,8.70
2019,01,19,05,14,8.80
2019,01,19,05,15,8.80
2019,01,19,05,16,8.80
2019,01,19,05,17,8.80
2019,01,19,05,18,8.80
2019,01,19,05,19,8.80
2019,01,19,05,20,8.80
2019,01,19,05,21,8.80
2019,01,19,05,22,8.80
2019,01,19,05,23,8.80
2019,01,19,05,24,8.80
2019,01,19,05,25,8.80
2019,01,19,05,26,8.80
2019,01,19,05,27,8.80
2019,01,19,05,28,8.90
2019,01,19,05,29,8.90
2019,01,19,05,30,8.90
2019,01,19,05,31,8.90
2019,01,19,05,32,8.90
2019,01,19,05,33,8.90
2019,01,19,05,34,8.90
2019,01,19,05,35,8.90
2019,01,19,05,36,9.00
2019,01,19,05,37,9.00
2019,01,19,05,38,9.00
2019,01,19,05,39,9.00
2019,01,19,05,40,9.00
2019,01,19,05,41,9.00
2019,01,19,05,42,8.90
2019,01,19,05,43,8.90
2019,01,19,05,44,8.90
2019,01,19,05,45,8.90
2019,01,19,05,46,8.80
2019,01,19,05,47,8.80
2019,01,19,05,48,8.80
2019,01,19,05,49,8.80
2019,01,19,05,50,8.80
2019,01,19,05,51,8.80
2019,01,19,05,52,8.90
2019,01,19,05,53,8.90
2019,01,19,05,54,8.90
2019,01,19,05,55,8.90
2019,01,19,05,56,8.90
2019,01,19,05,57,8.90
2019,01,19,05,58,8.90
2019,01,19,05,59,8.90
2019,01,19,06,00,8.90
2019,01,19,06,01,8.90
2019,01,19,06,02,8.90
2019,01,19,06,03,8.90
2019,01,19,06,04,8.90
2019,01,19,06,05,8.90
2019,01,19,06,06,9.00
2019,01,19,06,07,9.00
2019,01,19,06,08,9.10
2019,01,19,06,09,9.10
2019,01,19,06,10,9.10
2019,01,19,06,11,9.20
2019,01,19,06,12,9.20
2019,01,19,06,13,9.20
2019,01,19,06,14,9.20
2019,01,19,06,15,9.20
2019,01,19,06,16,9.10
2019,01,19,06,17,9.10
2019,01,19,06,18,9.10
2019,01,19,06,19,9.10
2019,01,19,06,20,9.10
2019,01,19,06,21,9.10
2019,01,19,06,22,9.10
2019,01,19,06,23,9.10
2019,01,19,06,24,9.10
2019,01,19,06,25,9.10
2019,01,19,06,26,9.10
2019,01,19,06,27,9.10
2019,01,19,06,28,9.00
2019,01,19,06,29,9.00
2019,01,19,06,30,9.00
2019,01,19,06,31,8.90
2019,01,19,06,32,8.90
2019,01,19,06,33,8.80
2019,01,19,06,34,8.70
2019,01,19,06,35,8.70
2019,01,19,06,36,8.60
2019,01,19,06,37,8.60
2019,01,19,06,38,8.50
2019,01,19,06,39,8.50
2019,01,19,06,40,8.40
2019,01,19,06,41,8.30
2019,01,19,06,42,8.30
2019,01,19,06,43,8.30
2019,01,19,06,44,8.30
2019,01,19,06,45,8.20
2019,01,19,06,46,8.20
2019,01,19,06,47,8.20
2019,01,19,06,48,8.20
2019,01,19,06,49,8.10
2019,01,19,06,50,8.10
2019,01,19,06,51,8.10
2019,01,19,06,52,8.10
2019,01,19,06,53,8.10
2019,01,19,06,54,8.10
2019,01,19,06,55,8.10
2019,01,19,06,56,8.10
2019,01,19,06,57,8.20
2019,01,19,06,58,8.20
2019,01,19,06,59,8.20
2019,01,19,07,00,8.20
2019,01,19,07,01,8.20
2019,01,19,07,02,8.20
2019,01,19,07,03,8.20
2019,01,19,07,04,8.20
2019,01,19,07,05,8.20
2019,01,19,07,06,8.20
2019,01,19,07,07,8.20
2019,01,19,07,08,8.20
2019,01,19,07,09,8.20
2019,01,19,07,10,8.20
2019,01,19,07,11,8.20
2019,01,19,07,12,8.20
2019,01,19,07,13,8.20
2019,01,19,07,14,8.20
2019,01,19,07,15,8.30
2019,01,19,07,16,8.30
2019,01,19,07,17,8.30
2019,01,19,07,18,8.30
2019,01,19,07,19,8.30
2019,01,19,07,20,8.30
2019,01,19,07,21,8.30
2019,01,19,07,22,8.20
2019,01,19,07,23,8.20
2019,01,19,07,24,8.20
2019,01,19,07,25,8.20
2019,01,19,07,26,8.20
2019,01,19,07,27,8.20
2019,01,19,07,28,8.20
2019,01,19,07,29,8.20
2019,01,19,07,30,8.20
2019,01,19,07,31,8.10
2019,01,19,07,32,8.10
2019,01,19,07,33,8.10
2019,01,19,07,34,8.10
2019,01,19,07,35,8.00
2019,01,19,07,36,8.00
2019,01,19,07,37,8.10
2019,01,19,07,38,8.10
2019,01,19,07,39,8.20
2019,01,19,07,40,8.30
2019,01,19,07,41,8.40
2019,01,19,07,42,8.40
2019,01,19,07,43,8.40
2019,01,19,07,44,8.50
2019,01,19,07,45,8.50
2019,01,19,07,46,8.60
2019,01,19,07,47,8.60
2019,01,19,07,48,8.60
2019,01,19,07,49,8.60
2019,01,19,07,50,8.60
2019,01,19,07,51,8.60
2019,01,19,07,52,8.60
2019,01,19,07,53,8.50
2019,01,19,07,54,8.40
2019,01,19,07,55,8.40
2019,01,19,07,56,8.40
2019,01,19,07,57,8.30
2019,01,19,07,58,8.40
2019,01,19,07,59,8.40
2019,01,19,08,00,8.40
2019,01,19,08,01,8.40
2019,01,19,08,02,8.40
2019,01,19,08,03,8.40
2019,01,19,08,04,8.40
2019,01,19,08,05,8.40
2019,01,19,08,06,8.40
2019,01,19,08,07,8.40
2019,01,19,08,08,8.40
2019,01,19,08,09,8.40
2019,01,19,08,10,8.40
2019,01,19,08,11,8.40
2019,01,19,08,12,8.40
2019,01,19,08,13,8.50
2019,01,19,08,14,8.60
2019,01,19,08,15,8.60
2019,01,19,08,16,8.60
2019,01,19,08,17,8.50
2019,01,19,08,18,8.50
2019,01,19,08,19,8.50
2019,01,19,08,20,8.60
2019,01,19,08,21,8.60
2019,01,19,08,22,8.60
2019,01,19,08,23,8.60
2019,01,19,08,24,8.60
2019,01,19,08,25,8.70
2019,01,19,08,26,8.70
2019,01,19,08,27,8.70
2019,01,19,08,28,8.70
2019,01,19,08,29,8.70
2019,01,19,08,30,8.70
2019,01,19,08,31,8.70
2019,01,19,08,32,8.70
2019,01,19,08,33,8.70
2019,01,19,08,34,8.80
2019,01,19,08,35,8.80
2019,01,19,08,36,8.80
2019,01,19,08,37,8.90
2019,01,19,08,38,9.00
2019,01,19,08,39,9.00
2019,01,19,08,40,9.00
2019,01,19,08,41,9.10
2019,01,19,08,42,9.10
2019,01,19,08,43,9.00
2019,01,19,08,44,9.00
2019,01,19,08,45,9.00
2019,01,19,08,46,9.00
2019,01,19,08,47,8.90
2019,01,19,08,48,8.90
2019,01,19,08,49,9.00
2019,01,19,08,50,9.00
2019,01,19,08,51,9.10
2019,01,19,08,52,9.10
2019,01,19,08,53,9.00
2019,01,19,08,54,9.00
2019,01,19,08,55,9.00
2019,01,19,08,56,9.00
2019,01,19,08,57,9.00
2019,01,19,08,58,9.10
2019,01,19,08,59,9.10
2019,01,19,09,00,9.10
2019,01,19,09,01,9.10
2019,01,19,09,02,9.10
2019,01,19,09,03,9.10
2019,01,19,09,04,9.10
2019,01,19,09,05,9.10
2019,01,19,09,06,9.10
2019,01,19,09,07,9.10
2019,01,19,09,08,9.10
2019,01,19,09,09,9.10
2019,01,19,09,10,9.10
2019,01,19,09,11,9.10
2019,01,19,09,12,9.00
2019,01,19,09,13,9.00
2019,01,19,09,14,8.90
2019,01,19,09,15,8.90
2019,01,19,09,16,8.90
2019,01,19,09,17,8.90
2019,01,19,09,18,8.90
2019,01,19,09,19,8.90
2019,01,19,09,20,8.90
2019,01,19,09,21,8.90
2019,01,19,09,22,8.90
2019,01,19,09,23,8.90
2019,01,19,09,24,8.90
2019,01,19,09,25,8.90
2019,01,19,09,26,8.80
2019,01,19,09,27,8.80
2019,01,19,09,28,8.80
2019,01,19,09,29,8.70
2019,01,19,09,30,8.70
2019,01,19,09,31,8.60
2019,01,19,09,32,8.60
2019,01,19,09,33,8.60
2019,01,19,09,34,8.50
2019,01,19,09,35,8.50
2019,01,19,09,36,8.50
2019,01,19,09,37,8.40
2019,01,19,09,38,8.40
2019,01,19,09,39,8.40
2019,01,19,09,40,8.40
2019,01,19,09,41,8.30
2019,01,19,09,42,8.30
2019,01,19,09,43,8.30
2019,01,19,09,44,8.30
2019,01,19,09,45,8.30
2019,01,19,09,46,8.30
2019,01,19,09,47,8.30
2019,01,19,09,48,8.30
2019,01,19,09,49,8.30
2019,01,19,09,50,8.30
2019,01,19,09,51,8.30
2019,01,19,09,52,8.30
2019,01,19,09,53,8.30
2019,01,19,09,54,8.30
2019,01,19,09,55,8.30
2019,01,19,09,56,8.30
2019,01,19,09,57,8.30
2019,01,19,09,58,8.30
2019,01,19,09,59,8.30
2019,01,19,10,00,8.30
2019,01,19,10,01,8.30
2019,01,19,10,02,8.30
2019,01,19,10,03,8.30
2019,01,19,10,04,8.30
2019,01,19,10,05,8.30
2019,01,19,10,06,8.30
2019,01,19,10,07,8.30
2019,01,19,10,08,8.30
2019,01,19,10,09,8.30
2019,01,19,10,10,8.30
2019,01,19,10,11,8.30
2019,01,19,10,12,8.30
2019,01,19,10,13,8.30
2019,01,19,10,14,8.30
2019,01,19,10,15,8.40
2019,01,19,10,16,8.40
2019,01,19,10,17,8.30
2019,01,19,10,18,8.40
2019,01,19,10,19,8.30
2019,01,19,10,20,8.30
2019,01,19,10,21,8.30
2019,01,19,10,22,8.20
2019,01,19,10,23,8.00
2019,01,19,10,24,7.80
2019,01,19,10,25,7.60
2019,01,19,10,26,7.40
2019,01,19,10,27,7.30
2019,01,19,10,28,7.20
2019,01,19,10,29,7.10
2019,01,19,10,30,7.00
2019,01,19,10,31,6.90
2019,01,19,10,32,6.70
2019,01,19,10,33,6.70
2019,01,19,10,34,6.60
2019,01,19,10,35,6.60
2019,01,19,10,36,6.60
2019,01,19,10,37,6.60
2019,01,19,10,38,6.60
2019,01,19,10,39,6.60
2019,01,19,10,40,6.60
2019,01,19,10,41,6.60
2019,01,19,10,42,6.60
2019,01,19,10,43,6.60
2019,01,19,10,44,6.60
2019,01,19,10,45,6.60
2019,01,19,10,46,6.60
2019,01,19,10,47,6.70
2019,01,19,10,48,6.70
2019,01,19,10,49,6.70
2019,01,19,10,50,6.80
2019,01,19,10,51,6.80
2019,01,19,10,52,6.80
2019,01,19,10,53,6.80
2019,01,19,10,54,6.90
2019,01,19,10,55,6.90
2019,01,19,10,56,6.90
2019,01,19,10,57,6.90
2019,01,19,10,58,7.00
2019,01,19,10,59,7.00
2019,01,19,11,00,7.00
2019,01,19,11,01,7.10
2019,01,19,11,02,7.10
2019,01,19,11,03,7.10
2019,01,19,11,04,7.10
2019,01,19,11,05,7.00
2019,01,19,11,06,7.00
2019,01,19,11,07,7.00
2019,01,19,11,08,7.00
2019,01,19,11,09,7.00
2019,01,19,11,10,7.00
2019,01,19,11,11,7.00
2019,01,19,11,12,7.00
2019,01,19,11,13,7.00
2019,01,19,11,14,7.00
2019,01,19,11,15,6.90
2019,01,19,11,16,6.90
2019,01,19,11,17,6.90
2019,01,19,11,18,6.90
2019,01,19,11,19,6.80
2019,01,19,11,20,6.80
2019,01,19,11,21,6.80
2019,01,19,11,22,6.80
2019,01,19,11,23,6.70
2019,01,19,11,24,6.70
2019,01,19,11,25,6.70
2019,01,19,11,26,6.60
2019,01,19,11,27,6.60
2019,01,19,11,28,6.60
2019,01,19,11,29,6.50
2019,01,19,11,30,6.50
2019,01,19,11,31,6.50
2019,01,19,11,32,6.40
2019,01,19,11,33,6.40
2019,01,19,11,34,6.40
2019,01,19,11,35,6.40
2019,01,19,11,36,6.40
2019,01,19,11,37,6.40
2019,01,19,11,38,6.40
2019,01,19,11,39,6.40
2019,01,19,11,40,6.40
2019,01,19,11,41,6.40
2019,01,19,11,42,6.50
2019,01,19,11,43,6.50
2019,01,19,11,44,6.40
2019,01,19,11,45,6.50
2019,01,19,11,46,6.50
2019,01,19,11,47,6.50
2019,01,19,11,48,6.50
2019,01,19,11,49,6.50
2019,01,19,11,50,6.50
2019,01,19,11,51,6.50
2019,01,19,11,52,6.50
2019,01,19,11,53,6.50
2019,01,19,11,54,6.50
2019,01,19,11,55,6.50
2019,01,19,11,56,6.50
2019,01,19,11,57,6.50
2019,01,19,11,58,6.50
2019,01,19,11,59,6.50
2019,01,19,12,00,6.50
2019,01,19,12,01,6.40
2019,01,19,12,02,6.40
2019,01,19,12,03,6.40
2019,01,19,12,04,6.40
2019,01,19,12,05,6.40
2019,01,19,12,06,6.40
2019,01,19,12,07,6.40
2019,01,19,12,08,6.50
2019,01,19,12,09,6.50
2019,01,19,12,10,6.50
2019,01,19,12,11,6.50
2019,01,19,12,12,6.50
2019,01,19,12,13,6.50
2019,01,19,12,14,6.50
2019,01,19,12,15,6.50
2019,01,19,12,16,6.40
2019,01,19,12,17,6.40
2019,01,19,12,18,6.40
2019,01,19,12,19,6.40
2019,01,19,12,20,6.40
2019,01,19,12,21,6.40
2019,01,19,12,22,6.40
2019,01,19,12,23,6.40
2019,01,19,12,24,6.40
2019,01,19,12,25,6.30
2019,01,19,12,26,6.30
2019,01,19,12,27,6.30
2019,01,19,12,28,6.30
2019,01,19,12,29,6.40
2019,01,19,12,30,6.40
2019,01,19,12,31,6.40
2019,01,19,12,32,6.40
2019,01,19,12,33,6.40
2019,01,19,12,34,6.40
2019,01,19,12,35,6.40
2019,01,19,12,36,6.40
2019,01,19,12,37,6.30
2019,01,19,12,38,6.30
2019,01,19,12,39,6.30
2019,01,19,12,40,6.30
2019,01,19,12,41,6.30
2019,01,19,12,42,6.30
2019,01,19,12,43,6.30
2019,01,19,12,44,6.30
2019,01,19,12,45,6.30
2019,01,19,12,46,6.30
2019,01,19,12,47,6.30
2019,01,19,12,48,6.30
2019,01,19,12,49,6.30
2019,01,19,12,50,6.20
2019,01,19,12,51,6.20
2019,01,19,12,52,6.20
2019,01,19,12,53,6.20
2019,01,19,12,54,6.20
2019,01,19,12,55,6.20
2019,01,19,12,56,6.20
2019,01,19,12,57,6.20
2019,01,19,12,58,6.20
2019,01,19,12,59,6.20
2019,01,19,13,00,6.20
2019,01,19,13,01,6.10
2019,01,19,13,02,6.10
2019,01,19,13,03,6.10
2019,01,19,13,04,6.10
2019,01,19,13,05,6.10
2019,01,19,13,06,6.10
2019,01,19,13,07,6.10
2019,01,19,13,08,6.10
2019,01,19,13,09,6.10
2019,01,19,13,10,6.10
2019,01,19,13,11,6.10
2019,01,19,13,12,6.10
2019,01,19,13,13,6.10
2019,01,19,13,14,6.10
2019,01,19,13,15,6.10
2019,01,19,13,16,6.10
2019,01,19,13,17,6.10
2019,01,19,13,18,6.10
2019,01,19,13,19,6.20
2019,01,19,13,20,6.20
2019,01,19,13,21,6.20
2019,01,19,13,22,6.20
2019,01,19,13,23,6.20
2019,01,19,13,24,6.20
2019,01,19,13,25,6.20
2019,01,19,13,26,6.20
2019,01,19,13,27,6.30
2019,01,19,13,28,6.30
2019,01,19,13,29,6.30
2019,01,19,13,30,6.30
2019,01,19,13,31,6.30
2019,01,19,13,32,6.30
2019,01,19,13,33,6.30
2019,01,19,13,34,6.40
2019,01,19,13,35,6.40
2019,01,19,13,36,6.40
2019,01,19,13,37,6.40
2019,01,19,13,38,6.50
2019,01,19,13,39,6.50
2019,01,19,13,40,6.50
2019,01,19,13,41,6.60
2019,01,19,13,42,6.60
2019,01,19,13,43,6.60
2019,01,19,13,44,6.60
2019,01,19,13,45,6.60
2019,01,19,13,46,6.70
2019,01,19,13,47,6.70
2019,01,19,13,48,6.70
2019,01,19,13,49,6.70
2019,01,19,13,50,6.70
2019,01,19,13,51,6.70
2019,01,19,13,52,6.70
2019,01,19,13,53,6.80
2019,01,19,13,54,6.80
2019,01,19,13,55,6.80
2019,01,19,13,56,6.80
2019,01,19,13,57,6.80
2019,01,19,13,58,6.80
2019,01,19,13,59,6.90
2019,01,19,14,00,6.90
2019,01,19,14,01,6.90
2019,01,19,14,02,6.90
2019,01,19,14,03,6.90
2019,01,19,14,04,6.90
2019,01,19,14,05,6.90
2019,01,19,14,06,7.00
2019,01,19,14,07,7.00
2019,01,19,14,08,7.00
2019,01,19,14,09,7.00
2019,01,19,14,10,7.00
2019,01,19,14,11,7.00
2019,01,19,14,12,7.00
2019,01,19,14,13,7.10
2019,01,19,14,14,7.10
2019,01,19,14,15,7.20
2019,01,19,14,16,7.30
2019,01,19,14,17,7.40
2019,01,19,14,18,7.50
2019,01,19,14,19,7.60
2019,01,19,14,20,7.70
2019,01,19,14,21,7.70
2019,01,19,14,22,7.80
2019,01,19,14,23,7.90
2019,01,19,14,24,7.90
2019,01,19,14,25,8.00
2019,01,19,14,26,8.00
2019,01,19,14,27,8.00
2019,01,19,14,28,8.10
2019,01,19,14,29,8.10
2019,01,19,14,30,8.10
2019,01,19,14,31,8.10
2019,01,19,14,32,8.00
2019,01,19,14,33,8.00
2019,01,19,14,34,8.10
2019,01,19,14,35,8.10
2019,01,19,14,36,8.10
2019,01,19,14,37,8.10
2019,01,19,14,38,8.10
2019,01,19,14,39,8.10
2019,01,19,14,40,8.10
2019,01,19,14,41,8.10
2019,01,19,14,42,8.00
2019,01,19,14,43,8.00
2019,01,19,14,44,8.00
2019,01,19,14,45,8.00
2019,01,19,14,46,7.90
2019,01,19,14,47,7.90
2019,01,19,14,48,7.90
2019,01,19,14,49,7.90
2019,01,19,14,50,7.90
2019,01,19,14,51,7.90
2019,01,19,14,52,7.90
2019,01,19,14,53,8.00
2019,01,19,14,54,8.00
2019,01,19,14,55,8.00
2019,01,19,14,56,8.00
2019,01,19,14,57,8.00
2019,01,19,14,58,8.00
2019,01,19,14,59,8.00
2019,01,19,15,00,8.00
2019,01,19,15,01,8.10
2019,01,19,15,02,8.10
2019,01,19,15,03,8.10
2019,01,19,15,04,8.10
2019,01,19,15,05,8.10
2019,01,19,15,06,8.10
2019,01,19,15,07,8.10
2019,01,19,15,08,8.00
2019,01,19,15,09,8.00
2019,01,19,15,10,8.00
2019,01,19,15,11,8.00
2019,01,19,15,12,8.00
2019,01,19,15,13,8.00
2019,01,19,15,14,7.90
2019,01,19,15,15,7.90
2019,01,19,15,16,7.90
2019,01,19,15,17,7.90
2019,01,19,15,18,7.90
2019,01,19,15,19,7.80
2019,01,19,15,20,7.70
2019,01,19,15,21,7.60
2019,01,19,15,22,7.60
2019,01,19,15,23,7.50
2019,01,19,15,24,7.50
2019,01,19,15,25,7.40
2019,01,19,15,26,7.40
2019,01,19,15,27,7.40
2019,01,19,15,28,7.30
2019,01,19,15,29,7.20
2019,01,19,15,30,7.20
2019,01,19,15,31,7.20
2019,01,19,15,32,7.10
2019,01,19,15,33,7.10
2019,01,19,15,34,7.10
2019,01,19,15,35,7.00
2019,01,19,15,36,6.90
2019,01,19,15,37,6.90
2019,01,19,15,38,6.80
2019,01,19,15,39,6.80
2019,01,19,15,40,6.70
2019,01,19,15,41,6.70
2019,01,19,15,42,6.70
2019,01,19,15,43,6.60
2019,01,19,15,44,6.60
2019,01,19,15,45,6.60
2019,01,19,15,46,6.50
2019,01,19,15,47,6.50
2019,01,19,15,48,6.50
2019,01,19,15,49,6.40
2019,01,19,15,50,6.40
2019,01,19,15,51,6.40
2019,01,19,15,52,6.40
2019,01,19,15,53,6.30
2019,01,19,15,54,6.30
2019,01,19,15,55,6.30
2019,01,19,15,56,6.30
2019,01,19,15,57,6.30
2019,01,19,15,58,6.30
2019,01,19,15,59,6.30
2019,01,19,16,00,6.30
2019,01,19,16,01,6.30
2019,01,19,16,02,6.30
2019,01,19,16,03,6.30
2019,01,19,16,04,6.30
2019,01,19,16,05,6.30
2019,01,19,16,06,6.30
2019,01,19,16,07,6.30
2019,01,19,16,08,6.20
2019,01,19,16,09,6.20
2019,01,19,16,10,6.20
2019,01,19,16,11,6.20
2019,01,19,16,12,6.20
2019,01,19,16,13,6.20
2019,01,19,16,14,6.20
2019,01,19,16,15,6.20
2019,01,19,16,16,6.20
2019,01,19,16,17,6.10
2019,01,19,16,18,6.10
2019,01,19,16,19,6.10
2019,01,19,16,20,6.00
2019,01,19,16,21,6.00
2019,01,19,16,22,6.00
2019,01,19,16,23,6.00
2019,01,19,16,24,6.00
2019,01,19,16,25,5.90
2019,01,19,16,26,5.90
2019,01,19,16,27,5.90
2019,01,19,16,28,5.80
2019,01,19,16,29,5.80
2019,01,19,16,30,5.80
2019,01,19,16,31,5.70
2019,01,19,16,32,5.70
2019,01,19,16,33,5.70
2019,01,19,16,34,5.70
2019,01,19,16,35,5.60
2019,01,19,16,36,5.60
2019,01,19,16,37,5.60
2019,01,19,16,38,5.60
2019,01,19,16,39,5.60
2019,01,19,16,40,5.60
2019,01,19,16,41,5.60
2019,01,19,16,42,5.50
2019,01,19,16,43,5.50
2019,01,19,16,44,5.50
2019,01,19,16,45,5.40
2019,01,19,16,46,5.40
2019,01,19,16,47,5.40
2019,01,19,16,48,5.40
2019,01,19,16,49,5.30
2019,01,19,16,50,5.30
2019,01,19,16,51,5.30
2019,01,19,16,52,5.20
2019,01,19,16,53,5.20
2019,01,19,16,54,5.20
2019,01,19,16,55,5.10
2019,01,19,16,56,5.10
2019,01,19,16,57,5.10
2019,01,19,16,58,5.10
2019,01,19,16,59,5.10
2019,01,19,17,00,5.00
2019,01,19,17,01,5.00
2019,01,19,17,02,5.00
2019,01,19,17,03,5.00
2019,01,19,17,04,4.90
2019,01,19,17,05,4.90
2019,01,19,17,06,4.90
2019,01,19,17,07,4.90
2019,01,19,17,08,4.90
2019,01,19,17,09,4.80
2019,01,19,17,10,4.80
2019,01,19,17,11,4.80
2019,01,19,17,12,4.80
2019,01,19,17,13,4.80
2019,01,19,17,14,4.80
2019,01,19,17,15,4.80
2019,01,19,17,16,4.80
2019,01,19,17,17,4.70
2019,01,19,17,18,4.70
2019,01,19,17,19,4.70
2019,01,19,17,20,4.70
2019,01,19,17,21,4.70
2019,01,19,17,22,4.70
2019,01,19,17,23,4.60
2019,01,19,17,24,4.60
2019,01,19,17,25,4.60
2019,01,19,17,26,4.60
2019,01,19,17,27,4.60
2019,01,19,17,28,4.50
2019,01,19,17,29,4.50
2019,01,19,17,30,4.40
2019,01,19,17,31,4.40
2019,01,19,17,32,4.40
2019,01,19,17,33,4.40
2019,01,19,17,34,4.30
2019,01,19,17,35,4.30
2019,01,19,17,36,4.30
2019,01,19,17,37,4.30
2019,01,19,17,38,4.30
2019,01,19,17,39,4.20
2019,01,19,17,40,4.20
2019,01,19,17,41,4.20
2019,01,19,17,42,4.20
2019,01,19,17,43,4.10
2019,01,19,17,44,4.10
2019,01,19,17,45,4.00
2019,01,19,17,46,4.00
2019,01,19,17,47,4.00
2019,01,19,17,48,4.00
2019,01,19,17,49,4.00
2019,01,19,17,50,4.00
2019,01,19,17,51,4.00
2019,01,19,17,52,4.00
2019,01,19,17,53,4.00
2019,01,19,17,54,4.00
2019,01,19,17,55,4.00
2019,01,19,17,56,3.90
2019,01,19,17,57,3.90
2019,01,19,17,58,3.90
2019,01,19,17,59,3.90
2019,01,19,18,00,3.90
2019,01,19,18,01,3.90
2019,01,19,18,02,3.80
2019,01,19,18,03,3.80
2019,01,19,18,04,3.80
2019,01,19,18,05,3.80
2019,01,19,18,06,3.80
2019,01,19,18,07,3.80
2019,01,19,18,08,3.80
2019,01,19,18,09,3.80
2019,01,19,18,10,3.80
2019,01,19,18,11,3.70
2019,01,19,18,12,3.70
2019,01,19,18,13,3.70
2019,01,19,18,14,3.70
2019,01,19,18,15,3.70
2019,01,19,18,16,3.60
2019,01,19,18,17,3.60
2019,01,19,18,18,3.60
2019,01,19,18,19,3.60
2019,01,19,18,20,3.60
2019,01,19,18,21,3.60
2019,01,19,18,22,3.60
2019,01,19,18,23,3.60
2019,01,19,18,24,3.50
2019,01,19,18,25,3.50
2019,01,19,18,26,3.50
